SU1166 SABE-SAWH

Flight info

Callsign SU1166
Flight time N/A
Altitude 32000
Route PAL9XGBE/31 GBE UP664 DIL UT662 ASKAS UT704 DABLI
Aircraft B738/M-SDE2E3FGHIRWXY/LB1

Departure

Time N/A
Airport Aeroparque Jorge Newbery (SABE)

Arrival

Time 2026-05-03 23:13
Airport Ushuaia - Malvinas Argentinas International Airport (SAWH)
Time Latitude Longitude Altitude Speed Heading
2026-05-03 20:15 -36.78461 -59.03522 32024 ft 398 kts 203°
2026-05-03 20:15 -36.83757 -59.05577 32020 ft 398 kts 204°
2026-05-03 20:16 -36.89050 -59.07636 32023 ft 398 kts 204°
2026-05-03 20:16 -36.94345 -59.09698 32021 ft 399 kts 204°
2026-05-03 20:17 -36.99655 -59.11770 32021 ft 399 kts 204°
2026-05-03 20:17 -37.04950 -59.13838 32016 ft 398 kts 204°
2026-05-03 20:18 -37.10234 -59.15904 32018 ft 397 kts 204°
2026-05-03 20:18 -37.15529 -59.17981 32019 ft 399 kts 204°
2026-05-03 20:19 -37.20846 -59.20066 32016 ft 399 kts 204°
2026-05-03 20:19 -37.26147 -59.22150 32017 ft 401 kts 204°
2026-05-03 20:20 -37.31485 -59.24252 32012 ft 400 kts 204°
2026-05-03 20:20 -37.36788 -59.26341 32000 ft 402 kts 204°
2026-05-03 20:21 -37.42124 -59.28450 31993 ft 402 kts 204°
2026-05-03 20:21 -37.47450 -59.30556 31994 ft 399 kts 204°
2026-05-03 20:22 -37.52750 -59.32656 31989 ft 401 kts 204°
2026-05-03 20:22 -37.58091 -59.34776 31980 ft 400 kts 204°
2026-05-03 20:23 -37.63400 -59.36882 31973 ft 402 kts 204°
2026-05-03 20:23 -37.68714 -59.38992 31972 ft 399 kts 204°
2026-05-03 20:24 -37.74071 -59.41129 31964 ft 402 kts 204°
2026-05-03 20:24 -37.79405 -59.43256 31968 ft 403 kts 205°
2026-05-03 20:25 -37.84730 -59.45382 31960 ft 403 kts 204°
2026-05-03 20:25 -37.90116 -59.47536 31963 ft 403 kts 204°
2026-05-03 20:26 -37.95456 -59.49672 31958 ft 403 kts 204°
2026-05-03 20:26 -38.00795 -59.51814 31952 ft 403 kts 204°
2026-05-03 20:27 -38.06163 -59.53968 31952 ft 402 kts 204°
2026-05-03 20:27 -38.11494 -59.56113 31947 ft 402 kts 204°
2026-05-03 20:28 -38.16848 -59.58271 31947 ft 402 kts 205°
2026-05-03 20:28 -38.22208 -59.60437 31941 ft 403 kts 204°
2026-05-03 20:29 -38.27555 -59.62598 31944 ft 403 kts 205°
2026-05-03 20:29 -38.32901 -59.64764 31937 ft 404 kts 205°
2026-05-03 20:30 -38.38260 -59.66938 31926 ft 403 kts 205°
2026-05-03 20:30 -38.43572 -59.69096 31929 ft 401 kts 205°
2026-05-03 20:31 -38.48927 -59.71279 31921 ft 404 kts 205°
2026-05-03 20:31 -38.54273 -59.73454 31921 ft 402 kts 205°
2026-05-03 20:32 -38.59590 -59.75626 31916 ft 403 kts 205°
2026-05-03 20:32 -38.64928 -59.77810 31908 ft 402 kts 205°
2026-05-03 20:33 -38.70269 -59.79997 31908 ft 402 kts 205°
2026-05-03 20:33 -38.75588 -59.82180 31905 ft 402 kts 205°
2026-05-03 20:34 -38.80898 -59.84360 31900 ft 401 kts 205°
2026-05-03 20:34 -38.86228 -59.86554 31896 ft 402 kts 205°
2026-05-03 20:35 -38.91549 -59.88743 31896 ft 401 kts 205°
2026-05-03 20:35 -38.96878 -59.90944 31885 ft 403 kts 205°
2026-05-03 20:36 -39.02228 -59.93156 31883 ft 403 kts 206°
2026-05-03 20:36 -39.07591 -59.95375 31879 ft 404 kts 205°
2026-05-03 20:37 -39.12935 -59.97587 31884 ft 402 kts 205°
2026-05-03 20:37 -39.18259 -59.99799 31876 ft 403 kts 205°
2026-05-03 20:38 -39.23587 -60.02019 31864 ft 406 kts 206°
2026-05-03 20:38 -39.28962 -60.04258 31870 ft 403 kts 206°
2026-05-03 20:39 -39.34295 -60.06485 31861 ft 405 kts 206°
2026-05-03 20:39 -39.39650 -60.08722 31857 ft 405 kts 206°
2026-05-03 20:40 -39.45002 -60.10966 31853 ft 405 kts 206°
2026-05-03 20:40 -39.50354 -60.13211 31845 ft 407 kts 206°
2026-05-03 20:41 -39.55772 -60.15484 31849 ft 406 kts 206°
2026-05-03 20:41 -39.61149 -60.17741 31847 ft 406 kts 206°
2026-05-03 20:42 -39.66522 -60.20007 31837 ft 409 kts 206°
2026-05-03 20:42 -39.71939 -60.22297 31834 ft 409 kts 206°
2026-05-03 20:43 -39.77300 -60.24561 31835 ft 407 kts 206°
2026-05-03 20:43 -39.82703 -60.26846 31825 ft 409 kts 206°
2026-05-03 20:44 -39.88099 -60.29133 31821 ft 409 kts 206°
2026-05-03 20:44 -39.93487 -60.31417 31820 ft 407 kts 206°
2026-05-03 20:45 -39.98898 -60.33724 31817 ft 411 kts 206°
2026-05-03 20:45 -40.04279 -60.36015 31818 ft 408 kts 206°
2026-05-03 20:46 -40.09672 -60.38316 32052 ft 410 kts 207°
2026-05-03 20:46 -40.12410 -60.39487 32193 ft 410 kts 207°
2026-05-03 20:46 -40.15102 -60.40638 32337 ft 410 kts 207°
2026-05-03 20:46 -40.17795 -60.41791 32476 ft 409 kts 207°
2026-05-03 20:47 -40.20518 -60.42959 32623 ft 409 kts 207°
2026-05-03 20:47 -40.23183 -60.44104 32762 ft 409 kts 207°
2026-05-03 20:47 -40.25882 -60.45260 32903 ft 408 kts 207°
2026-05-03 20:47 -40.28562 -60.46410 33044 ft 406 kts 207°
2026-05-03 20:48 -40.31284 -60.47578 33188 ft 408 kts 207°
2026-05-03 20:48 -40.33969 -60.48734 33328 ft 406 kts 207°
2026-05-03 20:48 -40.36622 -60.49876 33471 ft 406 kts 207°
2026-05-03 20:48 -40.39301 -60.51031 33619 ft 406 kts 207°
2026-05-03 20:49 -40.42012 -60.52205 33770 ft 408 kts 207°
2026-05-03 20:49 -40.47373 -60.54525 33781 ft 408 kts 207°
2026-05-03 20:50 -40.52767 -60.56779 33776 ft 408 kts 206°
2026-05-03 20:50 -40.58242 -60.58907 33768 ft 410 kts 205°
2026-05-03 20:51 -40.63666 -60.61002 33764 ft 409 kts 206°
2026-05-03 20:51 -40.69114 -60.63126 33765 ft 409 kts 205°
2026-05-03 20:52 -40.74572 -60.65260 33765 ft 409 kts 206°
2026-05-03 20:52 -40.80013 -60.67403 33766 ft 409 kts 206°
2026-05-03 20:53 -40.85458 -60.69545 33767 ft 407 kts 206°
2026-05-03 20:53 -40.90867 -60.71681 33751 ft 408 kts 206°
2026-05-03 20:54 -40.96333 -60.73842 33752 ft 409 kts 206°
2026-05-03 20:54 -41.04481 -60.77078 33749 ft 408 kts 206°
2026-05-03 20:55 -41.09929 -60.79249 33748 ft 410 kts 206°
2026-05-03 20:55 -41.15356 -60.81411 33747 ft 409 kts 207°
2026-05-03 20:56 -41.20805 -60.83583 33741 ft 408 kts 206°
2026-05-03 20:56 -41.26229 -60.85747 33733 ft 410 kts 206°
2026-05-03 20:57 -41.31708 -60.87945 33727 ft 410 kts 206°
2026-05-03 20:57 -41.37132 -60.90121 33730 ft 409 kts 206°
2026-05-03 20:58 -41.42577 -60.92311 33727 ft 411 kts 206°
2026-05-03 20:58 -41.48063 -60.94526 33721 ft 411 kts 206°
2026-05-03 20:59 -41.53528 -60.96726 33722 ft 412 kts 206°
2026-05-03 20:59 -41.59007 -60.98938 33708 ft 409 kts 206°
2026-05-03 21:00 -41.63567 -61.00783 33724 ft 412 kts 206°
2026-05-03 21:00 -41.69952 -61.03370 33706 ft 411 kts 206°
2026-05-03 21:01 -41.75415 -61.05584 33699 ft 411 kts 206°
2026-05-03 21:01 -41.80861 -61.07802 33687 ft 412 kts 206°
2026-05-03 21:02 -41.86363 -61.10045 33686 ft 412 kts 206°
2026-05-03 21:02 -41.91817 -61.12271 33689 ft 412 kts 206°
2026-05-03 21:03 -41.97297 -61.14514 33691 ft 412 kts 206°
2026-05-03 21:03 -42.02755 -61.16749 33693 ft 410 kts 206°
2026-05-03 21:04 -42.08203 -61.18984 33686 ft 410 kts 206°
2026-05-03 21:04 -42.13665 -61.21230 33682 ft 412 kts 206°
2026-05-03 21:05 -42.19125 -61.23474 33685 ft 409 kts 206°
2026-05-03 21:05 -42.24543 -61.25710 33681 ft 411 kts 207°
2026-05-03 21:06 -42.30001 -61.27968 33675 ft 412 kts 206°
2026-05-03 21:06 -42.35484 -61.30243 33660 ft 411 kts 206°
2026-05-03 21:07 -42.40938 -61.32511 33657 ft 413 kts 206°
2026-05-03 21:07 -42.46432 -61.34794 33652 ft 413 kts 206°
2026-05-03 21:08 -42.51932 -61.37084 33647 ft 415 kts 206°
2026-05-03 21:08 -42.57494 -61.39417 33648 ft 424 kts 206°
2026-05-03 21:09 -42.63128 -61.41777 33646 ft 426 kts 206°
2026-05-03 21:09 -42.68789 -61.44139 33648 ft 426 kts 206°
2026-05-03 21:10 -42.74441 -61.46505 33654 ft 427 kts 206°
2026-05-03 21:10 -42.80117 -61.48888 33653 ft 428 kts 206°
2026-05-03 21:11 -42.85790 -61.51275 33646 ft 428 kts 206°
2026-05-03 21:11 -42.91463 -61.53669 33642 ft 427 kts 206°
2026-05-03 21:12 -42.97140 -61.56068 33632 ft 426 kts 206°
2026-05-03 21:12 -43.02818 -61.58476 33633 ft 427 kts 206°
2026-05-03 21:13 -43.08464 -61.60872 33627 ft 428 kts 206°
2026-05-03 21:13 -43.14160 -61.63299 33622 ft 428 kts 207°
2026-05-03 21:14 -43.19821 -61.65708 33618 ft 427 kts 207°
2026-05-03 21:14 -43.25480 -61.68124 33613 ft 425 kts 207°
2026-05-03 21:15 -43.31151 -61.70552 33612 ft 428 kts 207°
2026-05-03 21:15 -43.36796 -61.72971 33613 ft 427 kts 207°
2026-05-03 21:16 -43.42480 -61.75417 33608 ft 430 kts 207°
2026-05-03 21:16 -43.48151 -61.77858 33599 ft 428 kts 207°
2026-05-03 21:17 -43.52921 -61.79916 33603 ft 431 kts 207°
2026-05-03 21:17 -43.59588 -61.82796 33598 ft 430 kts 207°
2026-05-03 21:18 -43.65295 -61.85268 33594 ft 433 kts 207°
2026-05-03 21:18 -43.71040 -61.87762 33583 ft 432 kts 207°
2026-05-03 21:19 -43.76732 -61.90230 33588 ft 432 kts 207°
2026-05-03 21:19 -43.82476 -61.92738 33586 ft 434 kts 207°
2026-05-03 21:20 -43.88205 -61.95236 33579 ft 431 kts 207°
2026-05-03 21:20 -43.93981 -61.97764 33577 ft 436 kts 207°
2026-05-03 21:21 -43.99761 -62.00296 33576 ft 436 kts 207°
2026-05-03 21:21 -44.05516 -62.02822 33571 ft 435 kts 207°
2026-05-03 21:22 -44.11274 -62.05353 33565 ft 433 kts 207°
2026-05-03 21:22 -44.17039 -62.07899 33563 ft 435 kts 207°
2026-05-03 21:23 -44.22769 -62.10431 33565 ft 436 kts 207°
2026-05-03 21:23 -44.28544 -62.12991 33552 ft 436 kts 207°
2026-05-03 21:24 -44.34335 -62.15564 33551 ft 437 kts 207°
2026-05-03 21:24 -44.40090 -62.18119 33544 ft 435 kts 207°
2026-05-03 21:25 -44.45884 -62.20703 33542 ft 438 kts 207°
2026-05-03 21:25 -44.51637 -62.23268 33545 ft 436 kts 207°
2026-05-03 21:26 -44.57412 -62.25851 33547 ft 436 kts 207°
2026-05-03 21:26 -44.63214 -62.28455 33541 ft 438 kts 207°
2026-05-03 21:27 -44.68980 -62.31047 33545 ft 438 kts 207°
2026-05-03 21:27 -44.74781 -62.33660 33535 ft 438 kts 207°
2026-05-03 21:28 -44.80579 -62.36272 33537 ft 438 kts 206°
2026-05-03 21:28 -44.86365 -62.38888 33528 ft 437 kts 207°
2026-05-03 21:29 -44.92160 -62.41515 33520 ft 437 kts 206°
2026-05-03 21:29 -44.97900 -62.44118 33508 ft 436 kts 206°
2026-05-03 21:30 -45.03689 -62.46754 33507 ft 440 kts 206°
2026-05-03 21:30 -45.09506 -62.49408 33511 ft 439 kts 206°
2026-05-03 21:31 -45.15315 -62.52060 33520 ft 439 kts 206°
2026-05-03 21:31 -45.21139 -62.54729 33514 ft 441 kts 206°
2026-05-03 21:32 -45.26971 -62.57408 33512 ft 442 kts 206°
2026-05-03 21:32 -45.32778 -62.60079 33513 ft 440 kts 205°
2026-05-03 21:33 -45.38608 -62.62771 33510 ft 444 kts 205°
2026-05-03 21:33 -45.44446 -62.65468 33505 ft 443 kts 206°
2026-05-03 21:34 -45.50283 -62.68169 33499 ft 441 kts 206°
2026-05-03 21:34 -45.56120 -62.70881 33492 ft 443 kts 206°
2026-05-03 21:35 -45.62002 -62.73618 33487 ft 443 kts 206°
2026-05-03 21:35 -45.67832 -62.76334 33485 ft 443 kts 206°
2026-05-03 21:36 -45.73674 -62.79064 33482 ft 444 kts 206°
2026-05-03 21:36 -45.79539 -62.81812 33486 ft 443 kts 206°
2026-05-03 21:37 -45.85381 -62.84551 33485 ft 445 kts 205°
2026-05-03 21:37 -45.91249 -62.87312 33484 ft 445 kts 205°
2026-05-03 21:38 -45.97158 -62.90100 33483 ft 449 kts 205°
2026-05-03 21:38 -46.03055 -62.92882 33470 ft 446 kts 205°
2026-05-03 21:39 -46.08959 -62.95676 33468 ft 447 kts 205°
2026-05-03 21:39 -46.14851 -62.98472 33469 ft 446 kts 205°
2026-05-03 21:40 -46.20732 -63.01270 33466 ft 446 kts 205°
2026-05-03 21:40 -46.26604 -63.04071 33459 ft 449 kts 205°
2026-05-03 21:41 -46.32525 -63.06900 33460 ft 450 kts 205°
2026-05-03 21:41 -46.38455 -63.09736 33452 ft 446 kts 205°
2026-05-03 21:42 -46.44329 -63.12552 33445 ft 448 kts 205°
2026-05-03 21:42 -46.50201 -63.15376 33445 ft 448 kts 205°
2026-05-03 21:43 -46.56125 -63.18232 33436 ft 448 kts 205°
2026-05-03 21:43 -46.62022 -63.21081 33441 ft 450 kts 205°
2026-05-03 21:44 -46.67941 -63.23947 33444 ft 450 kts 205°
2026-05-03 21:44 -46.73878 -63.26828 33434 ft 449 kts 204°
2026-05-03 21:45 -46.79791 -63.29703 33433 ft 448 kts 204°
2026-05-03 21:45 -46.85700 -63.32584 33428 ft 450 kts 205°
2026-05-03 21:46 -46.91623 -63.35480 33426 ft 451 kts 205°
2026-05-03 21:46 -46.97546 -63.38380 33421 ft 450 kts 204°
2026-05-03 21:47 -47.03473 -63.41289 33420 ft 450 kts 204°
2026-05-03 21:47 -47.09394 -63.44204 33413 ft 450 kts 204°
2026-05-03 21:48 -47.15311 -63.47123 33411 ft 451 kts 204°
2026-05-03 21:48 -47.21276 -63.50077 33409 ft 453 kts 204°
2026-05-03 21:49 -47.27212 -63.53020 33406 ft 453 kts 204°
2026-05-03 21:49 -47.33161 -63.55976 33411 ft 452 kts 204°
2026-05-03 21:50 -47.39122 -63.58946 33402 ft 453 kts 204°
2026-05-03 21:50 -47.45073 -63.61917 33402 ft 454 kts 204°
2026-05-03 21:51 -47.51017 -63.64891 33400 ft 453 kts 204°
2026-05-03 21:51 -47.56964 -63.67873 33393 ft 453 kts 205°
2026-05-03 21:52 -47.62929 -63.70873 33399 ft 454 kts 205°
2026-05-03 21:52 -47.68905 -63.73885 33391 ft 454 kts 205°
2026-05-03 21:53 -47.74854 -63.76893 33388 ft 454 kts 205°
2026-05-03 21:53 -47.80815 -63.79911 33384 ft 454 kts 205°
2026-05-03 21:54 -47.86793 -63.82946 33374 ft 454 kts 205°
2026-05-03 21:54 -47.92764 -63.85987 33374 ft 454 kts 205°
2026-05-03 21:55 -47.98739 -63.89039 33378 ft 455 kts 205°
2026-05-03 21:55 -48.04707 -63.92091 33370 ft 456 kts 205°
2026-05-03 21:56 -48.10660 -63.95143 33365 ft 455 kts 205°
2026-05-03 21:56 -48.16665 -63.98229 33366 ft 457 kts 205°
2026-05-03 21:57 -48.22633 -64.01304 33358 ft 456 kts 205°
2026-05-03 21:57 -48.28610 -64.04391 33364 ft 456 kts 205°
2026-05-03 21:58 -48.34603 -64.07494 33355 ft 456 kts 205°
2026-05-03 21:58 -48.40587 -64.10602 33358 ft 457 kts 205°
2026-05-03 21:59 -48.46605 -64.13736 33354 ft 457 kts 205°
2026-05-03 21:59 -48.52586 -64.16859 33350 ft 456 kts 204°
2026-05-03 22:00 -48.58580 -64.19994 33335 ft 456 kts 204°
2026-05-03 22:00 -48.64578 -64.23143 33344 ft 458 kts 204°
2026-05-03 22:01 -48.70576 -64.26298 33348 ft 458 kts 204°
2026-05-03 22:01 -48.76587 -64.29468 33340 ft 458 kts 204°
2026-05-03 22:02 -48.82584 -64.32638 33344 ft 458 kts 204°
2026-05-03 22:02 -48.88575 -64.35815 33338 ft 458 kts 204°
2026-05-03 22:03 -48.94558 -64.38994 33334 ft 456 kts 204°
2026-05-03 22:03 -49.00556 -64.42193 33324 ft 459 kts 204°
2026-05-03 22:04 -49.06550 -64.45393 33318 ft 458 kts 204°
2026-05-03 22:04 -49.12548 -64.48606 33322 ft 457 kts 204°
2026-05-03 22:05 -49.18512 -64.51808 33311 ft 456 kts 204°
2026-05-03 22:05 -49.24459 -64.55007 33319 ft 456 kts 204°
2026-05-03 22:06 -49.30430 -64.58229 33317 ft 455 kts 204°
2026-05-03 22:06 -49.36414 -64.61466 33322 ft 456 kts 204°
2026-05-03 22:07 -49.42365 -64.64693 33311 ft 454 kts 203°
2026-05-03 22:07 -49.48306 -64.67922 33324 ft 454 kts 204°
2026-05-03 22:08 -49.54229 -64.71152 33319 ft 454 kts 204°
2026-05-03 22:08 -49.60152 -64.74390 33314 ft 453 kts 204°
2026-05-03 22:09 -49.66078 -64.77640 33308 ft 452 kts 204°
2026-05-03 22:10 -49.74947 -64.82517 33308 ft 453 kts 204°
2026-05-03 22:10 -49.80859 -64.85779 33293 ft 453 kts 204°
2026-05-03 22:11 -49.86795 -64.89064 33294 ft 454 kts 203°
2026-05-03 22:11 -49.92703 -64.92337 33300 ft 452 kts 203°
2026-05-03 22:12 -49.98640 -64.95637 33290 ft 453 kts 203°
2026-05-03 22:12 -50.04538 -64.98919 33296 ft 452 kts 203°
2026-05-03 22:13 -50.10431 -65.02206 33303 ft 451 kts 203°
2026-05-03 22:13 -50.16336 -65.05512 33309 ft 453 kts 203°
2026-05-03 22:14 -50.22239 -65.08826 33307 ft 453 kts 203°
2026-05-03 22:14 -50.28141 -65.12150 33301 ft 454 kts 203°
2026-05-03 22:15 -50.34054 -65.15490 33304 ft 453 kts 203°
2026-05-03 22:15 -50.39977 -65.18842 33288 ft 453 kts 203°
2026-05-03 22:16 -50.45903 -65.22205 33289 ft 453 kts 203°
2026-05-03 22:16 -50.51802 -65.25562 33290 ft 454 kts 203°
2026-05-03 22:17 -50.57687 -65.28921 33292 ft 454 kts 203°
2026-05-03 22:17 -50.63621 -65.32317 33298 ft 454 kts 203°
2026-05-03 22:18 -50.69563 -65.35729 33297 ft 454 kts 203°
2026-05-03 22:18 -50.75482 -65.39135 33308 ft 454 kts 203°
2026-05-03 22:19 -50.81369 -65.42534 33303 ft 454 kts 202°
2026-05-03 22:19 -50.87275 -65.45951 33298 ft 454 kts 202°
2026-05-03 22:20 -50.93186 -65.49380 33305 ft 454 kts 202°
2026-05-03 22:20 -50.99100 -65.52819 33302 ft 454 kts 202°
2026-05-03 22:21 -51.05027 -65.56276 33296 ft 454 kts 202°
2026-05-03 22:21 -51.10911 -65.59716 33293 ft 455 kts 202°
2026-05-03 22:22 -51.16840 -65.63192 33280 ft 457 kts 202°
2026-05-03 22:22 -51.22790 -65.66688 33285 ft 457 kts 203°
2026-05-03 22:23 -51.28768 -65.70210 33282 ft 457 kts 203°
2026-05-03 22:23 -51.34699 -65.73714 33279 ft 457 kts 203°
2026-05-03 22:24 -51.40625 -65.77226 33281 ft 457 kts 203°
2026-05-03 22:24 -51.46551 -65.80746 33280 ft 456 kts 203°
2026-05-03 22:25 -51.52473 -65.84275 33286 ft 456 kts 203°
2026-05-03 22:25 -51.58436 -65.87839 33284 ft 456 kts 203°
2026-05-03 22:26 -51.64358 -65.91389 33288 ft 456 kts 203°
2026-05-03 22:26 -51.70258 -65.94935 33025 ft 454 kts 203°
2026-05-03 22:26 -51.73214 -65.96713 32580 ft 450 kts 202°
2026-05-03 22:27 -51.76142 -65.98478 32078 ft 446 kts 202°
2026-05-03 22:27 -51.78990 -66.00195 31598 ft 443 kts 202°
2026-05-03 22:27 -51.81907 -66.01908 31019 ft 442 kts 201°
2026-05-03 22:27 -51.84769 -66.03522 30424 ft 441 kts 201°
2026-05-03 22:28 -51.87660 -66.05120 29818 ft 439 kts 200°
2026-05-03 22:28 -51.90537 -66.06699 29224 ft 437 kts 200°
2026-05-03 22:28 -51.93396 -66.08270 28644 ft 435 kts 200°
2026-05-03 22:28 -51.96240 -66.09839 28056 ft 433 kts 200°
2026-05-03 22:29 -51.99054 -66.11398 27474 ft 431 kts 200°
2026-05-03 22:29 -52.01872 -66.12966 26893 ft 428 kts 200°
2026-05-03 22:29 -52.04673 -66.14530 26317 ft 426 kts 200°
2026-05-03 22:29 -52.07475 -66.16101 25732 ft 424 kts 200°
2026-05-03 22:30 -52.10250 -66.17657 25157 ft 422 kts 200°
2026-05-03 22:30 -52.12977 -66.19192 24603 ft 419 kts 201°
2026-05-03 22:30 -52.15723 -66.20740 24033 ft 417 kts 200°
2026-05-03 22:30 -52.18451 -66.22279 23476 ft 415 kts 200°
2026-05-03 22:31 -52.21153 -66.23807 22927 ft 413 kts 201°
2026-05-03 22:31 -52.23860 -66.25342 22363 ft 411 kts 201°
2026-05-03 22:31 -52.26544 -66.26866 21797 ft 409 kts 201°
2026-05-03 22:31 -52.29211 -66.28381 21237 ft 407 kts 201°
2026-05-03 22:32 -52.31856 -66.29888 20678 ft 405 kts 201°
2026-05-03 22:32 -52.34498 -66.31397 20122 ft 403 kts 201°
2026-05-03 22:32 -52.37127 -66.32900 19555 ft 400 kts 201°
2026-05-03 22:32 -52.39725 -66.34386 18988 ft 398 kts 201°
2026-05-03 22:33 -52.42343 -66.35885 18420 ft 396 kts 201°
2026-05-03 22:33 -52.44909 -66.37355 17872 ft 393 kts 201°
2026-05-03 22:33 -52.47468 -66.38823 17330 ft 390 kts 201°
2026-05-03 22:33 -52.50022 -66.40295 16757 ft 387 kts 201°
2026-05-03 22:34 -52.52528 -66.41737 16241 ft 379 kts 201°
2026-05-03 22:34 -52.54974 -66.43144 15715 ft 372 kts 201°
2026-05-03 22:34 -52.57382 -66.44528 15197 ft 365 kts 201°
2026-05-03 22:34 -52.59753 -66.45892 14687 ft 359 kts 201°
2026-05-03 22:35 -52.62077 -66.47234 14185 ft 356 kts 201°
2026-05-03 22:35 -52.64370 -66.48663 13800 ft 348 kts 204°
2026-05-03 22:35 -52.66581 -66.50070 13557 ft 339 kts 201°
2026-05-03 22:35 -52.68783 -66.51296 13347 ft 330 kts 200°
2026-05-03 22:36 -52.70950 -66.52456 13331 ft 327 kts 199°
2026-05-03 22:36 -52.73140 -66.53632 13321 ft 330 kts 200°
2026-05-03 22:36 -52.75326 -66.54806 13341 ft 332 kts 200°
2026-05-03 22:36 -52.77498 -66.55974 13323 ft 330 kts 199°
2026-05-03 22:37 -52.79684 -66.57151 13326 ft 331 kts 200°
2026-05-03 22:37 -52.81876 -66.58327 13324 ft 332 kts 199°
2026-05-03 22:37 -52.84039 -66.59499 13326 ft 330 kts 200°
2026-05-03 22:37 -52.86223 -66.60686 13319 ft 330 kts 200°
2026-05-03 22:38 -52.88413 -66.61877 13319 ft 331 kts 200°
2026-05-03 22:38 -52.90574 -66.63068 13318 ft 330 kts 200°
2026-05-03 22:38 -52.92753 -66.64249 13318 ft 328 kts 200°
2026-05-03 22:38 -52.94933 -66.65438 13332 ft 328 kts 200°
2026-05-03 22:39 -52.97072 -66.66614 13325 ft 328 kts 200°
2026-05-03 22:39 -52.99259 -66.67814 13331 ft 327 kts 200°
2026-05-03 22:39 -53.01419 -66.69002 13335 ft 328 kts 200°
2026-05-03 22:39 -53.03566 -66.70185 13336 ft 329 kts 200°
2026-05-03 22:40 -53.05751 -66.71401 13339 ft 328 kts 200°
2026-05-03 22:40 -53.07890 -66.72597 13339 ft 329 kts 200°
2026-05-03 22:40 -53.10055 -66.73816 13342 ft 329 kts 200°
2026-05-03 22:40 -53.12249 -66.75060 13339 ft 328 kts 200°
2026-05-03 22:41 -53.14388 -66.76277 13343 ft 329 kts 200°
2026-05-03 22:41 -53.16484 -66.77470 13340 ft 330 kts 201°
2026-05-03 22:41 -53.18698 -66.78732 13350 ft 342 kts 200°
2026-05-03 22:41 -53.21006 -66.80063 13339 ft 361 kts 200°
2026-05-03 22:42 -53.23382 -66.81442 13336 ft 366 kts 200°
2026-05-03 22:42 -53.25796 -66.82855 13340 ft 366 kts 201°
2026-05-03 22:42 -53.28180 -66.84250 13333 ft 367 kts 200°
2026-05-03 22:42 -53.30611 -66.85677 13333 ft 368 kts 201°
2026-05-03 22:43 -53.33001 -66.87088 13338 ft 368 kts 200°
2026-05-03 22:43 -53.35434 -66.88527 13341 ft 370 kts 201°
2026-05-03 22:43 -53.37832 -66.89968 13344 ft 368 kts 201°
2026-05-03 22:43 -53.40226 -66.91409 13352 ft 368 kts 200°
2026-05-03 22:44 -53.42625 -66.92852 13352 ft 364 kts 200°
2026-05-03 22:44 -53.44984 -66.94293 13351 ft 363 kts 201°
2026-05-03 22:44 -53.47355 -66.95751 13351 ft 364 kts 200°
2026-05-03 22:44 -53.49721 -66.97226 13349 ft 362 kts 201°
2026-05-03 22:45 -53.52079 -66.98732 13348 ft 363 kts 201°
2026-05-03 22:45 -53.54415 -67.00253 13350 ft 365 kts 201°
2026-05-03 22:45 -53.56807 -67.01842 13355 ft 369 kts 201°
2026-05-03 22:45 -53.59184 -67.03413 13347 ft 371 kts 201°
2026-05-03 22:46 -53.61577 -67.04977 13354 ft 371 kts 201°
2026-05-03 22:46 -53.64015 -67.06555 13355 ft 371 kts 201°
2026-05-03 22:46 -53.66402 -67.08098 13349 ft 369 kts 201°
2026-05-03 22:46 -53.68774 -67.09644 13356 ft 367 kts 200°
2026-05-03 22:47 -53.71151 -67.11214 13356 ft 366 kts 200°
2026-05-03 22:47 -53.73507 -67.12793 13355 ft 362 kts 201°
2026-05-03 22:47 -53.75830 -67.14359 13361 ft 366 kts 201°
2026-05-03 22:47 -53.78208 -67.15965 13357 ft 367 kts 200°
2026-05-03 22:48 -53.80553 -67.17560 13358 ft 366 kts 201°
2026-05-03 22:48 -53.82921 -67.19167 13355 ft 366 kts 201°
2026-05-03 22:48 -53.85265 -67.20760 13372 ft 366 kts 201°
2026-05-03 22:48 -53.87618 -67.22356 13367 ft 366 kts 201°
2026-05-03 22:49 -53.89971 -67.23953 13377 ft 366 kts 201°
2026-05-03 22:49 -53.92352 -67.25567 13372 ft 365 kts 201°
2026-05-03 22:49 -53.94700 -67.27151 13372 ft 365 kts 201°
2026-05-03 22:49 -53.97049 -67.28739 13367 ft 367 kts 201°
2026-05-03 22:50 -53.99434 -67.30345 13365 ft 366 kts 201°
2026-05-03 22:50 -54.01793 -67.31940 13359 ft 365 kts 201°
2026-05-03 22:50 -54.04132 -67.33533 13359 ft 365 kts 201°
2026-05-03 22:50 -54.06475 -67.35141 13356 ft 365 kts 201°
2026-05-03 22:51 -54.08843 -67.36770 13360 ft 364 kts 201°
2026-05-03 22:51 -54.11181 -67.38384 13362 ft 365 kts 201°
2026-05-03 22:51 -54.13528 -67.40004 13367 ft 364 kts 201°
2026-05-03 22:51 -54.15865 -67.41617 13357 ft 363 kts 201°
2026-05-03 22:52 -54.18197 -67.43226 13353 ft 364 kts 201°
2026-05-03 22:52 -54.20563 -67.44856 13352 ft 364 kts 201°
2026-05-03 22:52 -54.22873 -67.46449 13349 ft 363 kts 201°
2026-05-03 22:52 -54.25236 -67.48080 13346 ft 363 kts 201°
2026-05-03 22:53 -54.27551 -67.49674 13342 ft 362 kts 201°
2026-05-03 22:53 -54.29904 -67.51289 13343 ft 363 kts 201°
2026-05-03 22:53 -54.32221 -67.52879 13335 ft 363 kts 201°
2026-05-03 22:53 -54.34576 -67.54511 13337 ft 364 kts 201°
2026-05-03 22:54 -54.36922 -67.56145 13339 ft 363 kts 201°
2026-05-03 22:54 -54.39262 -67.57787 13340 ft 364 kts 201°
2026-05-03 22:54 -54.41572 -67.59411 13339 ft 362 kts 202°
2026-05-03 22:54 -54.43911 -67.61052 13339 ft 363 kts 201°
2026-05-03 22:55 -54.46234 -67.62684 13341 ft 363 kts 201°
2026-05-03 22:55 -54.48577 -67.64332 13349 ft 363 kts 201°
2026-05-03 22:55 -54.50911 -67.65972 13345 ft 363 kts 202°
2026-05-03 22:55 -54.53242 -67.67612 13347 ft 362 kts 202°
2026-05-03 22:56 -54.55557 -67.69242 13349 ft 363 kts 202°
2026-05-03 22:56 -54.57899 -67.70892 13344 ft 363 kts 202°
2026-05-03 22:56 -54.60232 -67.72541 13332 ft 364 kts 202°
2026-05-03 22:56 -54.62539 -67.74186 13330 ft 362 kts 202°
2026-05-03 22:57 -54.64888 -67.75859 13325 ft 363 kts 202°
2026-05-03 22:57 -54.67209 -67.77508 13317 ft 364 kts 202°
2026-05-03 22:57 -54.69528 -67.79158 13313 ft 363 kts 202°
2026-05-03 22:57 -54.71865 -67.80828 13316 ft 363 kts 202°
2026-05-03 22:58 -54.74195 -67.82500 13316 ft 365 kts 202°
2026-05-03 22:58 -54.76540 -67.84135 13313 ft 363 kts 198°
2026-05-03 22:58 -54.79012 -67.85028 13283 ft 361 kts 184°
2026-05-03 22:58 -54.81466 -67.84799 12976 ft 355 kts 169°
2026-05-03 22:59 -54.83796 -67.83472 12232 ft 358 kts 153°
2026-05-03 22:59 -54.85827 -67.81056 11600 ft 357 kts 136°
2026-05-03 22:59 -54.87416 -67.77827 11058 ft 352 kts 124°
2026-05-03 22:59 -54.88732 -67.74325 10761 ft 338 kts 120°
2026-05-03 23:00 -54.89860 -67.70906 10527 ft 322 kts 113°
2026-05-03 23:00 -54.90514 -67.67278 10338 ft 304 kts 98°
2026-05-03 23:00 -54.90774 -67.63770 10179 ft 288 kts 92°
2026-05-03 23:00 -54.90871 -67.60365 10054 ft 273 kts 89°
2026-05-03 23:01 -54.90907 -67.57170 9944 ft 260 kts 89°
2026-05-03 23:01 -54.90938 -67.54110 9811 ft 251 kts 89°
2026-05-03 23:01 -54.90905 -67.51115 9483 ft 248 kts 78°
2026-05-03 23:01 -54.90329 -67.48330 9150 ft 242 kts 56°
2026-05-03 23:02 -54.89204 -67.46269 8815 ft 239 kts 33°
2026-05-03 23:02 -54.87682 -67.45172 8461 ft 238 kts 11°
2026-05-03 23:02 -54.86044 -67.44907 8125 ft 237 kts
2026-05-03 23:02 -54.84386 -67.44830 7782 ft 237 kts
2026-05-03 23:03 -54.82758 -67.44776 7460 ft 236 kts
2026-05-03 23:03 -54.81118 -67.44731 7136 ft 235 kts
2026-05-03 23:03 -54.79521 -67.45216 6773 ft 237 kts 339°
2026-05-03 23:03 -54.78165 -67.46803 6443 ft 240 kts 311°
2026-05-03 23:04 -54.77520 -67.49451 6051 ft 247 kts 275°
2026-05-03 23:04 -54.77753 -67.52368 5816 ft 244 kts 257°
2026-05-03 23:04 -54.78243 -67.55151 5706 ft 241 kts 255°
2026-05-03 23:04 -54.78745 -67.57945 5714 ft 246 kts 255°
2026-05-03 23:05 -54.79248 -67.60777 5712 ft 248 kts 255°
2026-05-03 23:05 -54.79745 -67.63596 5712 ft 236 kts 255°
2026-05-03 23:05 -54.80195 -67.66209 5720 ft 220 kts 258°
2026-05-03 23:05 -54.80535 -67.68722 5724 ft 214 kts 261°
2026-05-03 23:06 -54.80817 -67.71282 5672 ft 216 kts 263°
2026-05-03 23:06 -54.81065 -67.73825 5542 ft 214 kts 264°
2026-05-03 23:06 -54.81398 -67.76312 5415 ft 215 kts 251°
2026-05-03 23:06 -54.81958 -67.78743 5284 ft 215 kts 255°
2026-05-03 23:07 -54.82288 -67.81226 5157 ft 213 kts 265°
2026-05-03 23:07 -54.82436 -67.83790 5030 ft 211 kts 268°
2026-05-03 23:07 -54.82540 -67.86319 5031 ft 209 kts 269°
2026-05-03 23:07 -54.82644 -67.88775 5035 ft 199 kts 269°
2026-05-03 23:08 -54.82747 -67.91113 5020 ft 190 kts 269°
2026-05-03 23:08 -54.82843 -67.93381 4881 ft 193 kts 269°
2026-05-03 23:08 -54.82941 -67.95729 4490 ft 194 kts 269°
2026-05-03 23:08 -54.83038 -67.97974 4188 ft 184 kts 269°
2026-05-03 23:09 -54.83131 -68.00172 3895 ft 178 kts 269°
2026-05-03 23:09 -54.83218 -68.02236 3575 ft 172 kts 269°
2026-05-03 23:09 -54.83303 -68.04260 3269 ft 165 kts 269°
2026-05-03 23:09 -54.83385 -68.06243 3036 ft 168 kts 269°
2026-05-03 23:10 -54.83468 -68.08259 2738 ft 165 kts 268°
2026-05-03 23:10 -54.83551 -68.10199 2473 ft 161 kts 268°
2026-05-03 23:10 -54.83627 -68.12129 2209 ft 159 kts 268°
2026-05-03 23:10 -54.83704 -68.14024 1949 ft 159 kts 267°
2026-05-03 23:11 -54.83782 -68.15931 1691 ft 159 kts 268°
2026-05-03 23:11 -54.83860 -68.17851 1429 ft 160 kts 267°
2026-05-03 23:11 -54.83937 -68.19769 1171 ft 160 kts 267°
2026-05-03 23:11 -54.84015 -68.21679 915 ft 160 kts 268°
2026-05-03 23:12 -54.84092 -68.23604 666 ft 159 kts 267°
2026-05-03 23:12 -54.84171 -68.25499 379 ft 157 kts 267°
2026-05-03 23:12 -54.84248 -68.27321 101 ft 147 kts 269°
2026-05-03 23:12 -54.84303 -68.28947 56 ft 109 kts 263°
2026-05-03 23:13 -54.84335 -68.29786 69 ft 43 kts 265°
2026-05-03 23:13 -54.84353 -68.30239 75 ft 28 kts 266°
2026-05-03 23:13 -54.84364 -68.30508 75 ft 13 kts 266°
2026-05-03 23:13 -54.84370 -68.30673 75 ft 14 kts 266°
2026-05-03 23:14 -54.84375 -68.30829 73 ft 10 kts 271°
2026-05-03 23:14 -54.84334 -68.30936 71 ft 12 kts 338°
2026-05-03 23:14 -54.84256 -68.30961 72 ft 11 kts 354°
2026-05-03 23:14 -54.84181 -68.30972 72 ft 10 kts 356°
2026-05-03 23:15 -54.84114 -68.30988 73 ft 8 kts 334°
2026-05-03 23:15 -54.84085 -68.31081 72 ft 10 kts 272°
2026-05-03 23:15 -54.84053 -68.31169 70 ft 9 kts 343°
2026-05-03 23:15 -54.84017 -68.31178 70 ft 0 kts 355°